Terminal Aerodrome Forecast
Issued by NWS Newport/Morehead City, NC

Home | Current Version | Previous Version | Text Only | Print | Product List | Glossary Off
Versions: 1 2 3 4 5 6 7 8 9 10 11 12 13 14 15 16

000
FTUS42 KMHX 212300
TAFEWN
TAF
KEWN 212325Z 2200/2224 VRB04KT P6SM BKN070
     FM221300 30008KT P6SM SCT050
     FM221600 30012G20KT P6SM BKN050
     FM222300 32006KT P6SM SKC=

USA.gov is the U.S. government's official web portal to all federal, state and local government web resources and services.